Location: Camp at the Woods
(43.2055°N, 93.0905°W)
Time: 08:20:23
(UTC+00:00)

Cosmos 2322 - Pass Details

Date: 05 December 2023
Orbit: 839 x 855 km, 71.0° (Epoch: 29 February)

Event Time Altitude Azimuth Distance (km) Brightness Sun altitude
Rises 12:09:39 0° 231° (SW) 3,395 6.5 -13.9°
Reaches altitude 10° 12:12:20 10° 240° (WSW) 2,461 5.7 -13.5°
Maximum altitude 12:17:25 34° 304° (NW) 1,369 4.3 -12.6°
Drops below altitude 10° 12:22:31 10° 9° (N) 2,466 6.0 -11.7°
Sets 12:25:13 0° 19° (NNE) 3,404 6.8 -11.2°
